Probability
0 0 0 0 0 0 0 0 0 0 3 3 3 3 6 3 0 3 10 10 13 10 13 3 3 0 0 3 3 3 0 0 0 3 0 0 0 0 0 0 0 0 0 0
0 0 0 0 0 0 0 0 0 0 0 3 3 3 3 6 6 3 6 10 13 13 10 6 3 0 0 3 3 0 0 0 0 3 6 0 0 0 0 0 0 0 0 3
0 0 0 0 0 0 0 0 0 0 0 3 3 3 3 3 3 6 6 10 23 16 10 10 6 3 6 6 3 3 0 3 3 6 6 3 0 0 0 0 0 0 3 3
0 0 0 0 0 0 0 0 0 0 0 0 0 0 0 3 3 3 6 6 10 13 13 10 6 3 6 6 6 3 0 3 3 3 6 6 0 0 0 0 0 0 3 6
0 0 0 0 0 0 0 0 0 0 0 0 0 0 0 0 3 3 3 10 6 6 6 13 10 3 3 6 6 3 3 3 3 3 3 6 3 0 0 0 0 0 3 3
0 0 0 0 0 0 0 0 0 0 0 0 0 0 0 0 0 3 0 10 6 6 6 6 6 6 3 3 6 6 3 3 3 3 3 0 3 3 0 0 0 0 0 3
0 0 0 0 0 0 0 0 0 0 0 0 0 0 0 0 0 0 0 3 13 3 3 3 3 6 3 0 3 3 3 3 3 3 0 3 3 3 3 0 0 0 0 3
0 0 0 0 0 0 0 0 0 0 0 0 0 0 0 3 3 3 0 10 16 10 0 6 3 3 3 3 10 10 6 6 3 3 3 3 3 3 3 3 0 3 6 6
0 0 0 0 0 0 0 0 0 0 0 0 0 0 0 0 3 3 3 10 13 13 6 3 3 3 3 6 10 10 13 10 10 13 6 6 6 6 3 3 3 6 10 13
0 0 0 0 0 0 0 0 0 0 0 0 0 0 0 0 3 3 3 6 10 10 6 6 6 6 6 6 6 10 10 10 6 6 6 6 6 10 10 3 13 13 13 13
0 0 0 0 0 0 0 0 0 0 0 0 0 0 0 0 0 3 3 10 10 6 6 6 10 6 6 6 6 10 10 10 6 6 6 6 6 6 6 10 10 10 13 13
0 0 0 0 0 0 0 0 0 0 0 0 0 0 0 0 0 3 3 6 13 6 6 6 6 6 10 10 10 6 13 13 13 10 10 6 6 10 6 6 6 6 10 10
0 0 0 0 0 0 0 0 0 0 0 0 0 0 0 0 0 0 6 6 10 6 6 6 6 10 10 10 13 13 13 16 16 13 13 10 16 6 10 13 10 6 10 10
0 0 0 0 0 0 0 0 0 0 0 0 0 0 0 0 0 3 10 10 6 10 10 10 6 10 10 13 19 16 19 16 16 16 16 16 13 13 10 10 10 6 13 10
0 0 0 0 0 0 0 0 0 0 0 0 0 0 0 0 0 6 10 6 6 10 13 10 10 10 10 16 19 19 19 16 16 16 16 16 13 6 6 10 13 10 10 10
0 0 0 0 0 0 0 0 0 0 0 0 0 0 0 0 0 3 10 6 10 10 16 16 19 19 16 16 19 19 23 19 19 16 16 13 10 10 6 6 10 16 16 10
0 0 0 0 0 0 0 0 0 0 0 0 0 0 0 0 0 6 6 3 10 13 13 19 23 19 19 19 19 16 16 19 19 16 10 10 6 6 6 6 6 13 16 19
0 0 0 0 0 0 0 0 0 0 0 0 0 0 0 0 0 3 6 10 6 10 10 16 13 13 13 19 19 16 19 19 19 10 10 13 13 10 10 10 10 13 10 10
0 0 0 0 0 0 0 0 0 0 0 0 0 0 0 0 0 3 10 10 6 10 13 10 13 13 10 13 16 19 19 16 13 13 10 10 13 13 16 13 13 13 13 10
0 0 0 0 0 0 0 0 0 0 0 0 0 0 0 0 0 0 3 6 6 6 3 10 13 10 13 13 16 16 19 13 13 13 13 13 10 16 16 16 13 13 13 13
0 0 0 0 0 0 0 0 0 0 0 0 0 0 3 0 0 0 3 3 6 3 6 10 13 13 13 13 13 16 16 19 13 10 10 10 6 10 13 13 13 10 13 13
0 0 0 0 0 0 0 0 0 0 0 0 0 0 0 0 3 3 0 0 3 6 10 10 10 10 13 6 6 13 13 10 13 13 10 10 10 6 6 10 10 10 3 10
0 0 0 0 0 0 0 0 0 0 0 3 3 0 0 3 3 0 0 0 6 6 6 6 6 10 10 6 6 10 6 6 13 13 10 3 3 3 3 3 6 6 6 6
0 0 0 0 0 0 0 0 0 0 0 3 0 0 3 6 6 3 3 6 3 0 3 3 6 6 10 10 6 6 3 3 10 13 6 3 3 3 3 3 3 3 3 6
0 0 0 0 0 0 0 0 0 0 0 0 0 3 6 6 3 3 3 6 0 0 3 3 3 6 6 6 6 3 3 10 13 10 6 3 3 3 3 6 3 6 6 6
0 0 0 0 0 0 0 0 3 0 0 0 3 3 3 6 3 3 3 0 0 0 0 3 3 3 6 6 6 6 6 10 6 6 6 6 3 3 3 3 3 3 3 3
Height
5899 5901 5901 5902 5902 5903 5903 5903 5903 5903 5902 5901 5901 5901 5900 5900 5899 5898 5897 5896 5894 5893 5891 5889 5887 5886 5884 5883 5881 5880 5879 5878 5877 5877 5877 5876 5876 5876 5875 5875 5874 5874 5873 5873
5899 5900 5901 5901 5901 5902 5902 5902 5902 5902 5901 5901 5900 5900 5900 5899 5899 5898 5897 5896 5894 5892 5890 5888 5887 5885 5883 5882 5881 5879 5877 5876 5876 5876 5876 5875 5875 5874 5874 5873 5872 5872 5871 5871
5897 5899 5899 5900 5900 5900 5901 5901 5901 5901 5900 5900 5900 5900 5899 5899 5898 5897 5896 5895 5894 5892 5890 5888 5886 5884 5882 5881 5879 5878 5877 5875 5875 5875 5874 5874 5873 5873 5872 5871 5870 5870 5869 5869
5895 5897 5897 5898 5898 5899 5899 5900 5899 5899 5899 5899 5899 5898 5898 5897 5897 5896 5895 5894 5893 5891 5889 5887 5885 5883 5881 5879 5878 5877 5876 5875 5874 5873 5872 5871 5871 5870 5870 5869 5868 5867 5867 5866
5893 5895 5895 5896 5897 5897 5897 5898 5897 5897 5897 5897 5897 5896 5897 5896 5895 5895 5894 5893 5891 5889 5887 5886 5884 5881 5879 5877 5876 5875 5874 5872 5871 5871 5870 5869 5868 5868 5867 5866 5865 5864 5864 5863
5891 5892 5892 5893 5894 5894 5895 5895 5895 5894 5895 5895 5895 5895 5895 5894 5894 5893 5892 5891 5889 5888 5886 5884 5882 5880 5877 5875 5874 5872 5871 5870 5869 5868 5867 5866 5866 5865 5864 5863 5862 5861 5860 5859
5888 5889 5889 5890 5891 5892 5892 5893 5892 5892 5892 5892 5893 5892 5893 5892 5891 5891 5890 5889 5887 5886 5884 5882 5880 5877 5875 5873 5871 5870 5868 5867 5866 5865 5864 5863 5862 5861 5860 5859 5859 5858 5857 5856
5884 5886 5887 5887 5888 5889 5889 5890 5890 5890 5889 5889 5889 5888 5890 5890 5889 5888 5887 5886 5885 5883 5882 5880 5877 5875 5873 5870 5869 5867 5865 5864 5863 5862 5860 5859 5858 5857 5856 5855 5854 5854 5853 5852
5880 5882 5883 5884 5884 5885 5885 5885 5886 5886 5885 5885 5884 5885 5886 5886 5885 5885 5884 5883 5882 5880 5879 5877 5875 5873 5870 5868 5866 5864 5862 5860 5859 5857 5856 5855 5854 5853 5852 5851 5850 5849 5848 5847
5877 5878 5879 5880 5880 5880 5881 5881 5881 5881 5880 5880 5880 5881 5882 5882 5881 5881 5880 5880 5879 5877 5876 5874 5872 5870 5868 5865 5863 5861 5859 5857 5855 5853 5852 5851 5849 5848 5847 5846 5845 5844 5843 5842
5872 5873 5874 5875 5875 5876 5876 5877 5876 5876 5876 5875 5875 5878 5878 5877 5877 5876 5876 5875 5875 5873 5872 5871 5869 5867 5864 5862 5860 5857 5856 5853 5851 5849 5848 5846 5845 5843 5842 5841 5840 5839 5837 5836
5867 5868 5868 5869 5870 5870 5871 5871 5871 5871 5871 5870 5870 5874 5872 5872 5872 5872 5871 5871 5870 5869 5868 5866 5865 5863 5860 5858 5856 5854 5852 5849 5847 5845 5843 5842 5840 5839 5837 5836 5835 5833 5832 5830
5861 5862 5862 5863 5865 5865 5864 5865 5865 5865 5865 5864 5865 5868 5867 5866 5866 5866 5866 5866 5865 5864 5863 5862 5860 5858 5856 5854 5852 5850 5847 5845 5843 5841 5839 5837 5835 5834 5832 5831 5829 5828 5826 5825
5855 5855 5857 5857 5858 5858 5858 5859 5859 5859 5858 5859 5859 5860 5861 5860 5860 5860 5860 5860 5860 5859 5858 5856 5855 5853 5851 5849 5847 5845 5842 5840 5838 5836 5834 5832 5830 5828 5827 5825 5823 5822 5820 5819
5848 5849 5849 5850 5851 5852 5852 5853 5853 5853 5853 5853 5854 5854 5854 5854 5854 5854 5854 5854 5853 5853 5852 5851 5849 5847 5846 5843 5841 5839 5837 5835 5833 5830 5828 5826 5825 5823 5821 5819 5818 5816 5814 5813
5841 5842 5842 5843 5844 5845 5845 5846 5846 5847 5847 5847 5847 5848 5848 5848 5848 5848 5848 5848 5847 5846 5846 5845 5843 5842 5840 5838 5835 5834 5832 5830 5827 5825 5823 5821 5819 5817 5815 5814 5812 5810 5808 5807
5834 5835 5836 5836 5837 5837 5838 5840 5840 5840 5840 5841 5841 5842 5841 5842 5842 5842 5842 5841 5841 5840 5839 5838 5837 5836 5834 5832 5830 5828 5826 5824 5822 5820 5818 5816 5813 5811 5810 5808 5806 5804 5802 5800
5827 5827 5827 5828 5830 5829 5834 5833 5833 5833 5833 5833 5834 5834 5834 5835 5835 5835 5835 5834 5834 5833 5833 5832 5830 5829 5827 5825 5823 5821 5819 5817 5816 5814 5812 5810 5808 5806 5804 5802 5800 5797 5795 5793
5819 5819 5820 5820 5820 5821 5824 5825 5825 5826 5826 5826 5827 5827 5827 5827 5828 5828 5827 5827 5827 5826 5826 5825 5823 5822 5820 5819 5817 5814 5813 5811 5810 5808 5806 5804 5802 5800 5797 5795 5793 5791 5789 5787
5811 5812 5812 5812 5812 5813 5817 5817 5817 5818 5818 5819 5819 5819 5819 5819 5820 5821 5820 5820 5820 5819 5819 5818 5816 5815 5814 5812 5810 5808 5806 5804 5803 5801 5799 5797 5794 5793 5791 5789 5787 5784 5782 5781
5803 5804 5804 5804 5804 5805 5808 5808 5810 5811 5811 5811 5811 5811 5811 5812 5812 5813 5812 5812 5812 5812 5811 5811 5809 5808 5806 5805 5803 5801 5799 5798 5796 5794 5792 5789 5787 5785 5784 5782 5780 5778 5776 5774
5795 5796 5796 5796 5797 5800 5800 5800 5801 5802 5802 5802 5802 5803 5803 5804 5804 5804 5804 5804 5804 5804 5804 5803 5802 5801 5800 5798 5796 5795 5793 5791 5789 5787 5785 5783 5780 5778 5777 5775 5773 5771 5768 5766
5786 5788 5788 5789 5791 5791 5791 5791 5792 5792 5793 5793 5793 5794 5795 5795 5796 5796 5796 5797 5796 5796 5796 5795 5795 5794 5792 5791 5789 5788 5786 5784 5782 5780 5778 5776 5774 5772 5770 5768 5765 5762 5760 5758
5778 5779 5780 5781 5782 5782 5783 5783 5783 5783 5784 5784 5784 5785 5786 5786 5787 5788 5788 5788 5789 5788 5788 5788 5787 5787 5786 5784 5783 5781 5779 5777 5775 5773 5771 5769 5767 5765 5763 5760 5758 5756 5753 5751
5770 5771 5771 5772 5773 5774 5775 5775 5775 5775 5775 5775 5775 5776 5776 5777 5778 5779 5779 5780 5780 5780 5780 5780 5779 5779 5778 5777 5776 5774 5772 5770 5768 5766 5764 5762 5760 5758 5757 5754 5752 5749 5747 5744
5762 5763 5764 5765 5765 5766 5767 5766 5766 5766 5767 5766 5766 5767 5767 5767 5768 5769 5770 5770 5771 5771 5772 5772 5771 5771 5770 5769 5768 5767 5765 5763 5762 5760 5758 5755 5753 5751 5749 5747 5745 5742 5740 5738
Wind_Speed
7 5 4 5 5 5 5 3 2 2 3 4 3 4 5 6 6 5 5 7 8 10 10 9 8 9 9 8 7 7 6 4 3 2 3 3 4 4 5 5 6 6 5 5
9 7 6 7 7 6 6 5 4 5 5 5 5 5 6 6 5 5 5 6 7 8 9 9 9 9 9 8 8 7 5 5 5 4 5 5 5 6 6 6 7 7 7 7
11 9 9 8 8 8 8 7 7 7 7 6 7 6 6 6 5 5 5 6 7 8 9 9 9 8 8 8 8 7 7 7 6 6 6 6 6 6 7 7 7 8 8 8
14 13 12 11 10 10 9 9 9 9 9 8 8 7 7 7 6 6 6 7 8 8 9 10 10 9 9 8 8 8 8 8 7 7 7 7 8 8 8 9 9 9 10 10
15 15 14 13 12 13 12 12 12 11 11 10 10 9 8 7 7 8 8 8 9 10 11 11 10 10 10 9 9 9 9 9 8 8 9 9 9 10 10 10 10 11 11 11
16 16 15 14 13 14 14 15 15 15 13 12 12 12 10 9 9 9 10 10 11 11 11 12 12 11 11 10 10 10 10 11 10 10 11 11 11 11 11 11 11 12 12 12
16 16 16 15 14 15 16 17 17 17 16 15 14 15 13 12 11 11 11 12 12 12 12 12 12 12 12 11 11 11 12 12 11 11 12 13 13 13 13 13 13 13 13 13
18 17 17 17 17 17 17 18 19 19 18 17 18 17 15 14 13 13 13 13 13 13 12 13 13 12 12 12 12 13 13 13 13 13 13 14 14 14 14 14 14 15 15 15
18 18 18 19 18 18 18 19 19 20 20 20 19 18 17 16 16 15 15 15 13 13 13 13 13 13 13 13 13 13 13 13 14 15 14 15 15 15 15 15 15 16 16 16
18 19 18 20 19 19 19 19 19 20 22 22 21 20 19 18 17 16 15 15 14 14 14 14 14 14 14 15 15 14 15 14 15 16 15 16 15 16 16 16 16 17 17 17
20 20 19 21 21 21 21 22 22 22 23 23 24 22 19 19 18 17 16 16 15 15 15 15 15 15 15 16 16 16 15 16 16 16 17 17 16 16 16 17 17 17 18 18
23 22 21 22 22 23 23 24 24 24 24 24 25 23 21 20 19 18 18 17 16 17 17 17 17 17 17 17 17 17 17 16 17 17 17 17 17 17 17 18 18 18 18 18
24 24 24 22 23 24 25 25 25 25 25 25 25 24 22 21 20 19 19 19 18 18 18 18 18 19 19 19 18 18 18 18 18 18 18 19 18 18 19 18 18 19 18 19
26 26 25 24 24 24 25 25 25 25 25 24 24 23 22 22 21 20 20 20 21 21 20 19 19 19 20 20 19 19 19 20 20 19 19 19 19 19 19 19 19 19 20 20
27 27 26 26 25 25 25 24 24 25 24 24 23 24 23 23 22 21 20 20 21 22 22 21 21 21 21 21 21 20 21 21 21 20 19 20 19 19 19 19 19 20 21 21
29 29 28 27 27 27 27 26 25 26 26 26 25 25 24 24 22 21 21 21 21 22 22 22 22 22 22 23 22 22 22 22 22 22 21 20 20 19 19 20 20 21 22 22
30 30 29 28 28 28 29 27 27 27 27 28 28 26 25 25 24 22 22 22 22 22 22 22 22 22 22 22 22 23 22 22 23 23 22 22 21 21 21 21 21 22 22 22
30 30 31 30 29 31 29 28 28 28 28 28 27 27 26 26 24 23 23 23 22 22 22 23 22 22 23 23 23 24 23 23 23 23 23 23 23 23 23 23 23 22 22 22
30 30 31 31 31 31 30 29 29 29 29 28 28 27 27 27 26 25 25 25 23 23 23 23 23 23 23 23 23 24 24 24 24 24 24 24 24 23 23 23 22 22 22 22
32 31 31 31 32 32 30 29 29 30 30 29 29 28 28 28 28 27 26 26 25 25 24 24 24 25 24 24 24 24 25 25 24 24 24 25 24 23 23 23 23 23 23 23
32 31 31 32 32 33 32 31 30 30 30 30 30 29 29 29 28 27 26 26 26 25 25 25 25 25 25 26 26 25 25 25 25 26 25 25 24 24 23 24 24 24 24 24
31 31 31 31 32 33 32 31 30 30 29 30 30 30 30 30 29 27 27 26 25 26 26 26 25 25 25 26 26 25 24 25 25 26 26 24 24 24 24 25 25 25 25 25
31 31 30 31 31 31 31 30 31 31 30 30 30 30 30 29 29 28 28 26 25 26 26 26 26 25 25 25 25 26 25 25 25 25 25 25 25 25 25 25 25 26 26 26
30 30 30 30 31 31 31 30 31 31 31 30 30 30 29 28 28 27 27 26 26 26 26 26 25 25 25 25 25 25 25 25 25 25 25 25 25 25 26 26 26 26 26 26
29 29 30 30 30 30 30 30 30 30 31 30 30 30 30 30 30 29 28 28 28 27 26 25 26 25 25 25 26 25 25 25 26 25 26 27 27 28 27 26 26 26 26 26
31 31 31 30 29 30 29 29 30 31 31 30 30 30 31 31 30 29 28 27 27 27 27 26 26 25 25 26 25 25 26 26 26 25 26 26 26 27 27 26 26 26 27 26
Wind_Direction
215 216 209 211 220 224 221 236 266 289 300 329 351 347 358 3 2 10 11 8 7 6 5 0 355 354 352 351 354 352 358 355 340 314 314 313 312 311 306 302 302 301 303 303
221 227 226 228 239 241 238 239 254 272 283 302 317 323 336 345 341 345 358 359 359 1 358 355 346 345 343 342 338 335 334 346 344 322 312 310 307 308 305 301 297 295 295 299
227 233 237 241 248 255 251 250 261 263 270 293 303 309 324 328 329 330 343 347 344 346 349 347 344 344 344 340 339 333 330 326 326 315 310 311 309 308 304 300 297 294 292 291
228 231 240 247 253 259 266 266 272 274 274 283 292 304 312 313 319 321 321 328 329 334 339 342 340 336 334 329 328 327 326 321 315 308 306 307 307 305 302 297 294 290 289 288
234 237 242 249 254 259 264 266 271 278 278 276 284 294 305 307 304 308 312 318 321 328 332 335 334 331 329 324 322 318 317 316 312 304 301 302 301 300 301 299 295 292 289 286
238 242 248 252 255 259 260 263 270 275 275 276 281 285 295 303 301 302 308 308 313 317 319 325 326 327 325 321 318 313 313 311 309 304 300 299 298 296 298 298 296 294 291 288
241 245 249 251 255 259 261 266 272 272 271 274 276 278 287 297 297 295 299 298 302 306 310 316 318 320 321 318 315 311 309 308 307 303 301 299 296 294 295 295 294 294 293 290
243 246 250 252 254 260 262 266 269 270 270 272 274 277 283 289 290 293 294 298 298 299 305 313 318 318 319 318 316 313 311 309 308 304 301 298 295 294 294 293 291 292 292 291
248 249 251 251 252 258 262 265 269 269 271 272 274 278 278 283 286 290 292 295 298 299 304 310 314 314 314 315 316 316 313 312 310 306 302 301 297 295 295 293 293 292 290 291
255 255 253 254 255 256 259 264 267 269 270 272 275 278 280 280 281 285 287 288 290 294 300 303 308 311 312 313 314 314 311 311 310 309 305 302 298 295 293 292 293 292 290 289
258 260 255 254 255 257 259 262 265 267 271 273 275 277 279 278 277 277 280 281 284 291 296 300 303 306 309 311 312 311 310 309 308 307 305 301 298 294 293 292 292 291 289 288
261 263 260 256 256 257 259 261 263 267 271 273 275 275 276 276 274 273 277 280 281 287 293 296 299 302 305 307 307 308 306 307 307 306 303 299 297 295 294 292 291 291 290 288
260 262 262 259 256 258 261 263 264 267 271 273 274 275 274 275 275 275 276 277 281 285 290 293 295 298 301 302 303 305 304 305 305 304 304 302 300 297 295 292 290 290 290 288
260 261 262 262 261 261 263 265 266 268 271 274 276 276 275 274 275 276 276 275 278 282 286 288 291 296 299 299 300 301 304 305 305 304 303 304 302 299 295 293 292 291 290 288
260 262 264 265 263 262 263 264 266 268 270 272 274 275 275 275 275 276 276 277 279 281 284 285 287 292 295 296 295 297 302 305 306 304 302 302 301 299 295 295 293 292 291 288
261 263 265 264 263 262 261 263 265 266 268 270 272 272 273 273 274 276 279 280 280 280 280 282 285 289 293 296 294 295 298 301 304 303 302 300 299 298 298 297 296 293 291 289
262 263 265 264 263 263 261 263 264 265 267 269 270 271 270 271 273 275 279 281 282 282 282 281 283 286 288 291 294 294 295 297 300 301 300 299 299 299 299 298 296 294 292 289
262 264 265 265 263 262 265 265 264 265 267 269 269 271 271 271 273 274 276 278 281 282 284 284 284 284 287 289 292 293 292 295 297 298 298 299 299 298 297 296 296 294 292 291
261 263 265 265 265 266 266 266 266 266 267 268 270 271 272 273 273 274 277 278 281 282 283 285 284 285 287 289 294 295 291 293 297 297 297 297 297 297 296 296 296 296 293 291
261 262 263 265 266 267 268 268 267 267 266 266 269 270 271 273 274 275 276 277 279 281 284 287 288 289 289 290 291 294 293 291 294 296 297 296 295 295 295 295 295 294 293 291
262 263 264 265 266 268 270 271 269 267 268 267 269 269 271 272 273 273 273 274 275 278 281 285 288 290 290 292 291 293 293 295 294 294 294 294 294 294 294 293 294 294 293 292
262 263 263 265 266 269 270 271 270 269 270 271 270 269 271 271 270 270 271 271 273 276 277 280 284 287 289 290 289 290 291 292 293 294 295 293 292 291 292 293 293 293 293 292
261 262 264 266 268 270 270 270 270 269 270 272 271 270 272 271 270 270 271 270 272 275 278 280 284 285 287 288 289 288 289 290 290 292 293 293 292 292 292 293 292 291 290 291
262 263 264 266 267 268 269 270 270 270 271 272 271 270 270 270 270 270 270 270 271 273 276 280 282 285 287 288 288 288 288 290 291 292 292 292 293 295 294 293 294 294 293 292
261 262 264 266 266 266 267 267 269 270 272 272 271 270 270 270 271 272 271 269 270 270 272 276 280 283 285 286 287 287 288 289 290 292 293 294 294 294 295 296 298 296 295 295
261 262 264 266 268 268 267 266 267 269 270 271 269 269 270 270 269 270 270 268 269 268 269 273 276 280 284 286 285 286 288 289 289 291 293 294 296 297 298 298 299 299 296 295